Погода в Корбе

Индия     22°20′48″N   82°42′17″E
темп.,
°C
ветер,
м/с
пор.,
м/с
влажн.,
%
обл.,
%
осадки,
мм/ч
давл.,
гПа
погр.,
м
25 января, вт
вт2523:30+15ссз34660 0.0 101392
02:30+13ссз24790 0.0 101279
05:30+12ссз24890 0.0 101391
08:30+16с34730 0.0 1015335
11:30+22зсз11420 0.0 10131634
14:30+24з33320 0.0 10101965
17:30+21зюз33390 0.0 101033
20:30+17зсз11460 0.0 101311
26 января, ср
ср2623:30+15ссз33550 0.0 101341
02:30+13ссз36640 0.0 1013122
05:30+11ссз34730 0.0 101379
08:30+15с33570 0.0 1015243
11:30+22сз22370 0.0 10141163
14:30+24зсз34260 0.0 10112022
17:30+21юз11330 0.0 101012
20:30+16с22370 0.0 101423
27 января, чт
чт2723:30+13ссз36420 0.0 1014100
02:30+12с24510 0.0 101365
05:30+10с23570 0.0 101458
08:30+15с33460 0.0 1017231
11:30+22ссз21290 0.0 10161195
14:30+24зсз34210 0.0 10121863
17:30+20сз12270 0.0 101211
20:30+15с33340 0.0 101530
28 января, пт
пт2823:30+13с33400 0.0 101641
02:30+11ссз34460 0.0 101551
05:30+10с34510 0.0 101663
08:30+14с34440 0.0 1018253
11:30+21сз44230 0.0 10171187
14:30+24ссз45160 0.0 10131664
17:30+20с34230 0.0 101340
20:30+15с33280 0.0 101626
29 января, сб
сб2923:30+13с34380 0.0 101644
02:30+11с33440 0.0 101544
05:30+10с33480 0.0 101644
08:30+15с23380 0.0 1018221
11:30+22сз34204 0.0 10171073
14:30+25сз35155 0.0 10121583
17:30+21с34210 0.0 101238
20:30+16ссз33270 0.0 101518